| time (UTC) | temp F | wind direction | speed knots | gust knots | rain 1hr in | rain 24hr in | rain mn in | humidity % | barometer mb |
| 20260509192348 | 72 | 254 | 1.7 | 9.6 | 0.00 | 0.00 | 0.00 | 63 | |
| 20260509192148 | 71 | 257 | 0.0 | 8.7 | 0.00 | 0.00 | 0.00 | 64 | |
| 20260509191946 | 71 | 277 | 0.9 | 8.7 | 0.00 | 0.00 | 0.00 | 62 | |
| 20260509191742 | 70 | 285 | 3.5 | 9.6 | 0.00 | 0.00 | 0.00 | 64 | |
| 20260509191542 | 70 | 262 | 6.1 | 9.6 | 0.00 | 0.00 | 0.00 | 62 | |
| 20260509191340 | 71 | 289 | 2.6 | 9.6 | 0.00 | 0.00 | 0.00 | 63 | |
| 20260509190935 | 70 | 277 | 7.8 | 9.6 | 0.00 | 0.00 | 0.00 | 63 | |
| 20260509190331 | 70 | 277 | 7.0 | 9.6 | 0.00 | 0.00 | 0.00 | 66 | |
| 20260509190129 | 69 | 262 | 5.2 | 9.6 | 0.00 | 0.00 | 0.00 | 67 | |
| 20260509185925 | 69 | 264 | 7.8 | 9.6 | 0.00 | 0.00 | 0.00 | 67 | |
| 20260509185724 | 69 | 261 | 5.2 | 10.4 | 0.00 | 0.00 | 0.00 | 67 | |
| 20260509185523 | 69 | 270 | 7.8 | 10.4 | 0.00 | 0.00 | 0.00 | 68 | |
| 20260509185321 | 69 | 237 | 2.6 | 10.4 | 0.00 | 0.00 | 0.00 | 68 | |
| 20260509185117 | 69 | 260 | 7.0 | 9.6 | 0.00 | 0.00 | 0.00 | 68 | |
| 20260509184917 | 68 | 262 | 7.8 | 9.6 | 0.00 | 0.00 | 0.00 | 70 | |
| 20260509184715 | 68 | 281 | 7.0 | 9.6 | 0.00 | 0.00 | 0.00 | 70 | |
| 20260509184511 | 68 | 289 | 6.1 | 9.6 | 0.00 | 0.00 | 0.00 | 70 | |
| 20260509184311 | 67 | 317 | 3.5 | 9.6 | 0.00 | 0.00 | 0.00 | 72 | |
| 20260509184108 | 68 | 260 | 6.1 | 9.6 | 0.00 | 0.00 | 0.00 | 72 | |
| 20260509183907 | 67 | 278 | 6.1 | 9.6 | 0.00 | 0.00 | 0.00 | 72 | |
| 20260509183504 | 67 | 262 | 6.1 | 8.7 | 0.00 | 0.00 | 0.00 | 73 | |
| 20260509183302 | 66 | 323 | 2.6 | 9.6 | 0.00 | 0.00 | 0.00 | 73 | |
| 20260509183100 | 67 | 295 | 4.3 | 9.6 | 0.00 | 0.00 | 0.00 | 75 | |
| 20260509182858 | 66 | 282 | 3.5 | 9.6 | 0.00 | 0.00 | 0.00 | 74 | |
| 20260509182656 | 66 | 277 | 6.1 | 9.6 | 0.00 | 0.00 | 0.00 | 75 | |
| 20260509182452 | 67 | 284 | 8.7 | 9.6 | 0.00 | 0.00 | 0.00 | 75 | |
| 20260509182252 | 66 | 277 | 6.1 | 10.4 | 0.00 | 0.00 | 0.00 | 75 | |
| 20260509182050 | 66 | 274 | 5.2 | 10.4 | 0.00 | 0.00 | 0.00 | 76 | |
| 20260509181847 | 66 | 262 | 7.8 | 10.4 | 0.00 | 0.00 | 0.00 | 76 | |
| 20260509181647 | 66 | 274 | 7.8 | 9.6 | 0.00 | 0.00 | 0.00 | 77 | |
| 20260509181243 | 65 | 275 | 6.1 | 11.3 | 0.00 | 0.00 | 0.00 | 77 | |
| 20260509181041 | 65 | 254 | 7.8 | 11.3 | 0.00 | 0.00 | 0.00 | 78 | |
| 20260509180838 | 65 | 261 | 7.8 | 11.3 | 0.00 | 0.00 | 0.00 | 78 | |
| 20260509180637 | 65 | 260 | 7.8 | 11.3 | 0.00 | 0.00 | 0.00 | 79 | |
| 20260509180233 | 65 | 260 | 11.3 | 9.6 | 0.00 | 0.00 | 0.00 | 78 | |
| 20260509180032 | 65 | 282 | 10.4 | 9.6 | 0.00 | 0.00 | 0.00 | 78 | |
| 20260509175629 | 65 | 272 | 5.2 | 9.6 | 0.00 | 0.00 | 0.00 | 79 | |
| 20260509175426 | 65 | 275 | 7.0 | 9.6 | 0.00 | 0.00 | 0.00 | 79 | |
| 20260509175224 | 65 | 267 | 2.6 | 8.7 | 0.00 | 0.00 | 0.00 | 79 | |
| 20260509175024 | 65 | 275 | 7.0 | 8.7 | 0.00 | 0.00 | 0.00 | 78 | |
| 20260509174818 | 65 | 278 | 3.5 | 8.7 | 0.00 | 0.00 | 0.00 | 79 | |
| 20260509174616 | 65 | 264 | 5.2 | 8.7 | 0.00 | 0.00 | 0.00 | 79 | |
| 20260509174416 | 65 | 288 | 2.6 | 8.7 | 0.00 | 0.00 | 0.00 | 79 | |
| 20260509174214 | 64 | 262 | 4.3 | 9.6 | 0.00 | 0.00 | 0.00 | 80 | |
| 20260509174012 | 64 | 277 | 7.0 | 9.6 | 0.00 | 0.00 | 0.00 | 78 | |
| 20260509173810 | 64 | 319 | 3.5 | 8.7 | 0.00 | 0.00 | 0.00 | 78 | |
| 20260509173608 | 64 | 274 | 2.6 | 8.7 | 0.00 | 0.00 | 0.00 | 80 | |
| 20260509173407 | 64 | 286 | 7.0 | 8.7 | 0.00 | 0.00 | 0.00 | 80 | |
| 20260509173204 | 63 | 285 | 6.1 | 9.6 | 0.00 | 0.00 | 0.00 | 80 | |
| 20260509173002 | 64 | 274 | 3.5 | 9.6 | 0.00 | 0.00 | 0.00 | 81 | |
| 20260509172557 | 64 | 264 | 7.0 | 9.6 | 0.00 | 0.00 | 0.00 | 81 | |
| 20260509172357 | 63 | 282 | 5.2 | 9.6 | 0.00 | 0.00 | 0.00 | 81 | |
| 20260509172155 | 63 | 258 | 5.2 | 8.7 | 0.00 | 0.00 | 0.00 | 80 | |
| 20260509171953 | 64 | 279 | 6.1 | 8.7 | 0.00 | 0.00 | 0.00 | 81 | |
| 20260509171752 | 63 | 279 | 4.3 | 7.8 | 0.00 | 0.00 | 0.00 | 82 | |
| 20260509171550 | 63 | 264 | 4.3 | 7.8 | 0.00 | 0.00 | 0.00 | 83 | |
| 20260509171347 | 62 | 299 | 6.1 | 7.8 | 0.00 | 0.00 | 0.00 | 83 | |
| 20260509171144 | 63 | 275 | 6.1 | 7.8 | 0.00 | 0.00 | 0.00 | 85 | |
| 20260509170742 | 62 | 268 | 5.2 | 8.7 | 0.00 | 0.00 | 0.00 | 86 | |
| 20260509170540 | 62 | 275 | 7.0 | 8.7 | 0.00 | 0.00 | 0.00 | 87 | |
| 20260509170338 | 62 | 275 | 3.5 | 8.7 | 0.00 | 0.00 | 0.00 | 87 | |
| 20260509170136 | 62 | 268 | 2.6 | 7.8 | 0.00 | 0.00 | 0.00 | 88 | |
| 20260509165733 | 61 | 275 | 4.3 | 7.8 | 0.00 | 0.00 | 0.00 | 89 | |
| 20260509165530 | 61 | 322 | 2.6 | 7.8 | 0.00 | 0.00 | 0.00 | 88 | |
| 20260509165126 | 60 | 282 | 1.7 | 7.0 | 0.00 | 0.00 | 0.00 | 91 | |
| 20260509164925 | 60 | 302 | 0.9 | 7.0 | 0.00 | 0.00 | 0.00 | 94 | |
| 20260509164723 | 60 | 275 | 4.3 | 7.0 | 0.00 | 0.00 | 0.00 | 95 | |
| 20260509164318 | 59 | 313 | 2.6 | 6.1 | 0.00 | 0.00 | 0.00 | 95 | |
| 20260509163915 | 59 | 289 | 1.7 | 6.1 | 0.00 | 0.00 | 0.00 | 96 | |
| 20260509163713 | 59 | 275 | 4.3 | 6.1 | 0.00 | 0.00 | 0.00 | 96 | |
| 20260509163512 | 59 | 274 | 3.5 | 6.1 | 0.00 | 0.00 | 0.00 | 97 | |
| 20260509163310 | 58 | 286 | 2.6 | 3.5 | 0.00 | 0.00 | 0.00 | 97 | |
| 20260509163108 | 58 | 279 | 0.9 | 3.5 | 0.00 | 0.00 | 0.00 | 97 | |
| 20260509162906 | 58 | 194 | 0.0 | 3.5 | 0.00 | 0.00 | 0.00 | 97 | |
| 20260509162704 | 58 | 271 | 0.9 | 6.1 | 0.00 | 0.00 | 0.00 | 97 | |
| 20260509162502 | 58 | 286 | 2.6 | 6.1 | 0.00 | 0.00 | 0.00 | 97 | |
| 20260509162058 | 57 | 277 | 3.5 | 4.3 | 0.00 | 0.00 | 0.00 | 97 | |
| 20260509161855 | 57 | 298 | 0.9 | 4.3 | 0.00 | 0.00 | 0.00 | 97 | |
| 20260509161654 | 57 | 313 | 0.0 | 5.2 | 0.00 | 0.00 | 0.00 | 97 | |
| 20260509161452 | 57 | 316 | 2.6 | 5.2 | 0.00 | 0.00 | 0.00 | 97 | |
| 20260509161250 | 57 | 248 | 1.7 | 1.7 | 0.00 | 0.00 | 0.00 | 97 | |
| 20260509161049 | 57 | 285 | 2.6 | 1.7 | 0.00 | 0.00 | 0.00 | 97 | |
| 20260509160847 | 57 | 240 | 0.0 | 1.7 | 0.00 | 0.00 | 0.00 | 97 | |
| 20260509160643 | 57 | 240 | 0.0 | 3.5 | 0.00 | 0.00 | 0.00 | 97 | |
| 20260509160241 | 56 | 292 | 2.6 | 2.6 | 0.00 | 0.00 | 0.00 | 97 | |
| 20260509160039 | 57 | 298 | 1.7 | 2.6 | 0.00 | 0.00 | 0.00 | 97 | |
| 20260509155837 | 57 | 272 | 1.7 | 2.6 | 0.00 | 0.00 | 0.00 | 97 | |
| 20260509155232 | 57 | 261 | 0.0 | 0.0 | 0.00 | 0.00 | 0.00 | 97 | |
| 20260509155030 | 57 | 261 | 0.0 | 0.0 | 0.00 | 0.00 | 0.00 | 97 | |
| 20260509154828 | 56 | 261 | 0.0 | 0.0 | 0.00 | 0.00 | 0.00 | 97 | |
| 20260509154626 | 56 | 261 | 0.0 | 0.0 | 0.00 | 0.00 | 0.00 | 97 | |
| 20260509154424 | 56 | 261 | 0.0 | 0.0 | 0.00 | 0.00 | 0.00 | 97 | |
| 20260509154222 | 56 | 261 | 0.0 | 0.0 | 0.00 | 0.00 | 0.00 | 97 | |
| 20260509154021 | 56 | 261 | 0.0 | 0.0 | 0.00 | 0.00 | 0.00 | 97 | |
| 20260509153817 | 56 | 261 | 0.0 | 0.0 | 0.00 | 0.00 | 0.00 | 97 | |
| 20260509153617 | 56 | 261 | 0.0 | 0.0 | 0.00 | 0.00 | 0.00 | 97 | |
| 20260509152605 | 56 | 286 | 0.0 | 0.0 | 0.00 | 0.00 | 0.00 | 97 | |
| 20260509152203 | 56 | 286 | 0.0 | 0.0 | 0.00 | 0.00 | 0.00 | 97 | |
| 20260509152001 | 56 | 286 | 0.0 | 0.0 | 0.00 | 0.00 | 0.00 | 97 | |
| 20260509151759 | 56 | 286 | 0.0 | 0.0 | 0.00 | 0.00 | 0.00 | 97 | |
| 20260509151557 | 56 | 286 | 0.0 | 0.0 | 0.00 | 0.00 | 0.00 | 97 | |
| 20260509151355 | 56 | 286 | 0.0 | 0.0 | 0.00 | 0.00 | 0.00 | 97 | |
| 20260509151153 | 56 | 286 | 0.0 | 0.0 | 0.00 | 0.00 | 0.00 | 97 | |
| 20260509150951 | 56 | 286 | 0.0 | 0.0 | 0.00 | 0.00 | 0.00 | 97 | |
| 20260509150750 | 55 | 286 | 0.0 | 0.0 | 0.00 | 0.00 | 0.00 | 97 | |
| 20260509150548 | 55 | 286 | 0.0 | 0.0 | 0.00 | 0.00 | 0.00 | 97 | |
| 20260509150346 | 55 | 286 | 0.0 | 0.0 | 0.00 | 0.00 | 0.00 | 97 | |
| 20260509150144 | 55 | 286 | 0.0 | 0.0 | 0.00 | 0.00 | 0.00 | 97 | |
| 20260509145942 | 55 | 286 | 0.0 | 0.0 | 0.00 | 0.00 | 0.00 | 97 | |
| 20260509145537 | 55 | 286 | 0.0 | 0.0 | 0.00 | 0.00 | 0.00 | 97 | |
| 20260509145336 | 55 | 286 | 0.0 | 0.0 | 0.00 | 0.00 | 0.00 | 97 | |
| 20260509145135 | 55 | 286 | 0.0 | 0.0 | 0.00 | 0.00 | 0.00 | 97 | |
| 20260509144933 | 55 | 286 | 0.0 | 0.0 | 0.00 | 0.00 | 0.00 | 97 | |
| 20260509144529 | 55 | 286 | 0.0 | 0.0 | 0.00 | 0.00 | 0.00 | 97 | |
| 20260509144327 | 54 | 286 | 0.0 | 0.0 | 0.00 | 0.00 | 0.00 | 97 | |
| 20260509144125 | 55 | 286 | 0.0 | 0.0 | 0.00 | 0.00 | 0.00 | 97 | |
| 20260509143923 | 54 | 286 | 0.0 | 0.0 | 0.00 | 0.00 | 0.00 | 97 | |
| 20260509143721 | 54 | 286 | 0.0 | 0.0 | 0.00 | 0.00 | 0.00 | 97 | |
| 20260509143115 | 54 | 286 | 0.0 | 0.0 | 0.00 | 0.00 | 0.00 | 97 | |
| 20260509142510 | 54 | 286 | 0.0 | 0.0 | 0.00 | 0.00 | 0.00 | 97 | |
| 20260509142308 | 54 | 286 | 0.0 | 0.0 | 0.00 | 0.00 | 0.00 | 97 | |
| 20260509142106 | 54 | 286 | 0.0 | 0.0 | 0.00 | 0.00 | 0.00 | 97 | |
| 20260509141902 | 54 | 286 | 0.0 | 0.0 | 0.00 | 0.00 | 0.00 | 97 | |
| 20260509141702 | 53 | 286 | 0.0 | 0.0 | 0.00 | 0.00 | 0.00 | 97 | |
| 20260509141500 | 53 | 286 | 0.0 | 0.0 | 0.00 | 0.00 | 0.00 | 97 | |
| 20260509141258 | 53 | 286 | 0.0 | 0.0 | 0.00 | 0.00 | 0.00 | 97 | |
| 20260509141056 | 53 | 286 | 0.0 | 0.0 | 0.00 | 0.00 | 0.00 | 97 | |
| 20260509140854 | 53 | 286 | 0.0 | 0.0 | 0.00 | 0.00 | 0.00 | 97 | |
| 20260509140653 | 53 | 286 | 0.0 | 0.0 | 0.00 | 0.00 | 0.00 | 97 | |
| 20260509140451 | 53 | 286 | 0.0 | 0.0 | 0.00 | 0.00 | 0.00 | 97 | |
| 20260509140249 | 53 | 286 | 0.0 | 0.0 | 0.00 | 0.00 | 0.00 | 97 | |
| 20260509140047 | 53 | 286 | 0.0 | 0.0 | 0.00 | 0.00 | 0.00 | 97 | |
| 20260509135643 | 52 | 286 | 0.0 | 0.0 | 0.00 | 0.00 | 0.00 | 97 | |
| 20260509135441 | 52 | 286 | 0.0 | 0.0 | 0.00 | 0.00 | 0.00 | 97 | |
| 20260509135238 | 52 | 286 | 0.0 | 0.0 | 0.00 | 0.00 | 0.00 | 97 | |
| 20260509134835 | 52 | 286 | 0.0 | 0.0 | 0.00 | 0.00 | 0.00 | 97 | |
| 20260509134634 | 52 | 286 | 0.0 | 0.0 | 0.00 | 0.00 | 0.00 | 97 | |
| 20260509134432 | 52 | 286 | 0.0 | 0.0 | 0.00 | 0.00 | 0.00 | 97 | |
| 20260509134230 | 52 | 286 | 0.0 | 0.0 | 0.00 | 0.00 | 0.00 | 97 | |
| 20260509134026 | 52 | 286 | 0.0 | 0.0 | 0.00 | 0.00 | 0.00 | 97 | |
| 20260509133624 | 52 | 286 | 0.0 | 0.0 | 0.00 | 0.00 | 0.00 | 97 | |
| 20260509133426 | 51 | 286 | 0.0 | 0.0 | 0.00 | 0.00 | 0.00 | 97 | |
| 20260509133221 | 51 | 286 | 0.0 | 0.0 | 0.00 | 0.00 | 0.00 | 97 | |
| 20260509133018 | 52 | 286 | 0.0 | 0.0 | 0.00 | 0.00 | 0.00 | 97 | |
| 20260509132614 | 51 | 286 | 0.0 | 0.0 | 0.00 | 0.00 | 0.00 | 97 | |
| 20260509132413 | 51 | 286 | 0.0 | 0.0 | 0.00 | 0.00 | 0.00 | 97 | |
| 20260509132211 | 52 | 286 | 0.0 | 0.0 | 0.00 | 0.00 | 0.00 | 97 | |
| 20260509132009 | 51 | 286 | 0.0 | 0.0 | 0.00 | 0.00 | 0.00 | 97 | |
| 20260509131807 | 51 | 286 | 0.0 | 0.0 | 0.00 | 0.00 | 0.00 | 97 | |
| 20260509131605 | 51 | 286 | 0.0 | 0.0 | 0.00 | 0.00 | 0.00 | 97 | |
| 20260509131403 | 51 | 286 | 0.0 | 0.0 | 0.00 | 0.00 | 0.00 | 97 | |
| 20260509131201 | 51 | 286 | 0.0 | 0.0 | 0.00 | 0.00 | 0.00 | 97 | |
| 20260509130959 | 52 | 286 | 0.0 | 0.0 | 0.00 | 0.00 | 0.00 | 97 | |
| 20260509130757 | 51 | 286 | 0.0 | 0.0 | 0.00 | 0.00 | 0.00 | 97 | |
| 20260509130555 | 51 | 286 | 0.0 | 0.0 | 0.00 | 0.00 | 0.00 | 97 | |
| 20260509125748 | 51 | 286 | 0.0 | 0.0 | 0.00 | 0.00 | 0.00 | 97 | |
| 20260509124940 | 52 | 286 | 0.0 | 0.0 | 0.00 | 0.00 | 0.00 | 97 | |
| 20260509124739 | 52 | 286 | 0.0 | 0.0 | 0.00 | 0.00 | 0.00 | 97 | |
| 20260509124335 | 52 | 286 | 0.0 | 0.0 | 0.00 | 0.00 | 0.00 | 97 | |
| 20260509124133 | 52 | 286 | 0.0 | 0.0 | 0.00 | 0.00 | 0.00 | 97 | |
| 20260509123931 | 52 | 286 | 0.0 | 0.0 | 0.00 | 0.00 | 0.00 | 97 | |
| 20260509123729 | 52 | 286 | 0.0 | 0.0 | 0.00 | 0.00 | 0.00 | 97 | |
| 20260509123325 | 52 | 286 | 0.0 | 0.0 | 0.00 | 0.00 | 0.00 | 96 | |
| 20260509123123 | 52 | 286 | 0.0 | 0.0 | 0.00 | 0.00 | 0.00 | 96 | |
| 20260509122921 | 52 | 286 | 0.0 | 0.0 | 0.00 | 0.00 | 0.00 | 96 | |
| 20260509122719 | 52 | 286 | 0.0 | 0.0 | 0.00 | 0.00 | 0.00 | 96 | |
| 20260509122516 | 52 | 286 | 0.0 | 0.0 | 0.00 | 0.00 | 0.00 | 97 | |
| 20260509122316 | 52 | 286 | 0.0 | 0.0 | 0.00 | 0.00 | 0.00 | 97 | |
| 20260509122114 | 52 | 286 | 0.0 | 0.0 | 0.00 | 0.00 | 0.00 | 97 | |
| 20260509121911 | 52 | 286 | 0.0 | 0.0 | 0.00 | 0.00 | 0.00 | 96 | |
| 20260509121506 | 52 | 286 | 0.0 | 0.0 | 0.00 | 0.00 | 0.00 | 96 | |
| 20260509121306 | 52 | 286 | 0.0 | 0.0 | 0.00 | 0.00 | 0.00 | 96 | |
| 20260509120700 | 52 | 286 | 0.0 | 0.0 | 0.00 | 0.00 | 0.00 | 96 | |
| 20260509120458 | 52 | 286 | 0.0 | 0.0 | 0.00 | 0.00 | 0.00 | 96 | |
| 20260509120256 | 52 | 286 | 0.0 | 0.0 | 0.00 | 0.00 | 0.00 | 96 | |
| 20260509120055 | 52 | 286 | 0.0 | 0.0 | 0.00 | 0.00 | 0.00 | 96 | |
| 20260509115852 | 52 | 286 | 0.0 | 0.0 | 0.00 | 0.00 | 0.00 | 96 | |
| 20260509115650 | 52 | 286 | 0.0 | 0.0 | 0.00 | 0.00 | 0.00 | 96 | |
| 20260509115449 | 52 | 286 | 0.0 | 0.0 | 0.00 | 0.00 | 0.00 | 96 | |
| 20260509115247 | 52 | 286 | 0.0 | 0.0 | 0.00 | 0.00 | 0.00 | 96 | |
| 20260509115045 | 52 | 286 | 0.0 | 0.0 | 0.00 | 0.00 | 0.00 | 96 | |
| 20260509114843 | 52 | 286 | 0.0 | 0.0 | 0.00 | 0.00 | 0.00 | 96 | |
| 20260509114640 | 52 | 286 | 0.0 | 0.0 | 0.00 | 0.00 | 0.00 | 96 | |
| 20260509114438 | 52 | 286 | 0.0 | 0.0 | 0.00 | 0.00 | 0.00 | 96 | |
| 20260509114237 | 52 | 286 | 0.0 | 0.0 | 0.00 | 0.00 | 0.00 | 96 | |
| 20260509114035 | 52 | 286 | 0.0 | 0.0 | 0.00 | 0.00 | 0.00 | 96 | |
| 20260509113834 | 52 | 286 | 0.0 | 0.0 | 0.00 | 0.00 | 0.00 | 96 | |
| 20260509113430 | 52 | 286 | 0.0 | 0.0 | 0.00 | 0.00 | 0.00 | 96 | |
| 20260509113026 | 52 | 286 | 0.0 | 0.0 | 0.00 | 0.00 | 0.00 | 96 | |
| 20260509112824 | 52 | 286 | 0.0 | 0.0 | 0.00 | 0.00 | 0.00 | 96 | |
| 20260509112622 | 52 | 286 | 0.0 | 0.0 | 0.00 | 0.00 | 0.00 | 96 | |
| 20260509112218 | 52 | 286 | 0.0 | 0.0 | 0.00 | 0.00 | 0.00 | 96 | |
| 20260509112016 | 52 | 286 | 0.0 | 0.0 | 0.00 | 0.00 | 0.00 | 96 | |
| 20260509111613 | 52 | 286 | 0.0 | 0.0 | 0.00 | 0.00 | 0.00 | 96 | |
| 20260509111411 | 52 | 286 | 0.0 | 0.0 | 0.00 | 0.00 | 0.00 | 96 | |
| 20260509111209 | 52 | 286 | 0.0 | 0.0 | 0.00 | 0.00 | 0.00 | 96 | |
| 20260509111006 | 51 | 286 | 0.0 | 0.0 | 0.00 | 0.00 | 0.00 | 96 | |
| 20260509110805 | 52 | 286 | 0.0 | 0.0 | 0.00 | 0.00 | 0.00 | 95 | |
| 20260509110603 | 52 | 286 | 0.0 | 0.0 | 0.00 | 0.00 | 0.00 | 95 | |
| 20260509110359 | 52 | 286 | 0.0 | 0.0 | 0.00 | 0.00 | 0.00 | 95 | |
| 20260509110159 | 52 | 286 | 0.0 | 0.0 | 0.00 | 0.00 | 0.00 | 95 | |
| 20260509105957 | 52 | 286 | 0.0 | 0.0 | 0.00 | 0.00 | 0.00 | 95 | |
| 20260509105755 | 52 | 286 | 0.0 | 0.0 | 0.00 | 0.00 | 0.00 | 95 | |
| 20260509105554 | 52 | 286 | 0.0 | 0.0 | 0.00 | 0.00 | 0.00 | 95 | |
| 20260509105351 | 52 | 286 | 0.0 | 0.0 | 0.00 | 0.00 | 0.00 | 95 | |
| 20260509105149 | 52 | 286 | 0.0 | 0.0 | 0.00 | 0.00 | 0.00 | 95 | |
| 20260509104946 | 52 | 286 | 0.0 | 0.0 | 0.00 | 0.00 | 0.00 | 95 | |
| 20260509104746 | 52 | 286 | 0.0 | 0.0 | 0.00 | 0.00 | 0.00 | 95 | |
| 20260509104542 | 52 | 286 | 0.0 | 0.0 | 0.00 | 0.00 | 0.00 | 95 | |
| 20260509104342 | 53 | 286 | 0.0 | 0.0 | 0.00 | 0.00 | 0.00 | 95 | |
| 20260509104140 | 52 | 286 | 0.0 | 0.0 | 0.00 | 0.00 | 0.00 | 95 | |
| 20260509103938 | 53 | 286 | 0.0 | 0.0 | 0.00 | 0.00 | 0.00 | 95 | |
| 20260509103736 | 53 | 286 | 0.0 | 0.0 | 0.00 | 0.00 | 0.00 | 95 | |
| 20260509103533 | 53 | 286 | 0.0 | 0.0 | 0.00 | 0.00 | 0.00 | 95 | |
| 20260509102727 | 52 | 286 | 0.0 | 0.0 | 0.00 | 0.00 | 0.00 | 95 | |
| 20260509102121 | 52 | 286 | 0.0 | 0.0 | 0.00 | 0.00 | 0.00 | 95 | |
| 20260509101717 | 53 | 286 | 0.0 | 0.0 | 0.00 | 0.00 | 0.00 | 95 | |
| 20260509101515 | 53 | 286 | 0.0 | 0.0 | 0.00 | 0.00 | 0.00 | 95 | |
| 20260509101313 | 53 | 260 | 0.0 | 0.0 | 0.00 | 0.00 | 0.00 | 94 | |
| 20260509101111 | 53 | 260 | 0.0 | 0.0 | 0.00 | 0.00 | 0.00 | 95 | |
| 20260509100910 | 53 | 260 | 0.0 | 0.0 | 0.00 | 0.00 | 0.00 | 95 | |
| 20260509100708 | 54 | 260 | 0.0 | 0.0 | 0.00 | 0.00 | 0.00 | 95 | |
| 20260509095900 | 54 | 260 | 0.0 | 0.0 | 0.00 | 0.00 | 0.00 | 95 | |
| 20260509095456 | 54 | 260 | 0.0 | 0.0 | 0.00 | 0.00 | 0.00 | 94 | |
| 20260509095254 | 54 | 260 | 0.0 | 0.0 | 0.00 | 0.00 | 0.00 | 94 | |
| 20260509094849 | 54 | 260 | 0.0 | 0.0 | 0.00 | 0.00 | 0.00 | 94 | |
| 20260509094647 | 54 | 260 | 0.0 | 0.0 | 0.00 | 0.00 | 0.00 | 94 | |
| 20260509094447 | 54 | 260 | 0.0 | 0.0 | 0.00 | 0.00 | 0.00 | 94 | |
| 20260509094245 | 54 | 260 | 0.0 | 0.0 | 0.00 | 0.00 | 0.00 | 95 | |
| 20260509094043 | 54 | 260 | 0.0 | 0.0 | 0.00 | 0.00 | 0.00 | 94 | |
| 20260509093841 | 54 | 260 | 0.0 | 0.0 | 0.00 | 0.00 | 0.00 | 94 | |
| 20260509093639 | 54 | 260 | 0.0 | 0.0 | 0.00 | 0.00 | 0.00 | 94 | |
| 20260509093235 | 54 | 260 | 0.0 | 0.0 | 0.00 | 0.00 | 0.00 | 94 | |
| 20260509093033 | 54 | 260 | 0.0 | 0.0 | 0.00 | 0.00 | 0.00 | 94 | |
| 20260509092831 | 54 | 260 | 0.0 | 0.0 | 0.00 | 0.00 | 0.00 | 94 | |
| 20260509092427 | 54 | 260 | 0.0 | 0.0 | 0.00 | 0.00 | 0.00 | 94 | |
| 20260509092226 | 54 | 260 | 0.0 | 0.0 | 0.00 | 0.00 | 0.00 | 94 | |
| 20260509092023 | 54 | 260 | 0.0 | 0.0 | 0.00 | 0.00 | 0.00 | 94 | |
| 20260509091620 | 54 | 260 | 0.0 | 0.0 | 0.00 | 0.00 | 0.00 | 94 | |
| 20260509091417 | 54 | 260 | 0.0 | 0.0 | 0.00 | 0.00 | 0.00 | 94 | |
| 20260509091014 | 54 | 260 | 0.0 | 0.0 | 0.00 | 0.00 | 0.00 | 94 | |
| 20260509090812 | 54 | 260 | 0.0 | 0.0 | 0.00 | 0.00 | 0.00 | 94 | |
| 20260509090611 | 54 | 260 | 0.0 | 0.0 | 0.00 | 0.00 | 0.00 | 94 | |
| 20260509090409 | 54 | 260 | 0.0 | 0.0 | 0.00 | 0.00 | 0.00 | 94 | |
| 20260509090207 | 54 | 260 | 0.0 | 0.0 | 0.00 | 0.00 | 0.00 | 94 | |
| 20260509085803 | 54 | 260 | 0.0 | 0.0 | 0.00 | 0.00 | 0.00 | 94 | |
| 20260509085601 | 54 | 260 | 0.0 | 0.0 | 0.00 | 0.00 | 0.00 | 94 | |
| 20260509085359 | 54 | 260 | 0.0 | 0.0 | 0.00 | 0.00 | 0.00 | 94 | |
| 20260509085157 | 54 | 260 | 0.0 | 0.0 | 0.00 | 0.00 | 0.00 | 93 | |
| 20260509084955 | 54 | 260 | 0.0 | 0.0 | 0.00 | 0.00 | 0.00 | 93 | |
| 20260509084753 | 54 | 260 | 0.0 | 0.0 | 0.00 | 0.00 | 0.00 | 93 | |
| 20260509084551 | 54 | 260 | 0.0 | 0.0 | 0.00 | 0.00 | 0.00 | 93 | |
| 20260509084148 | 54 | 260 | 0.0 | 0.0 | 0.00 | 0.00 | 0.00 | 93 | |
| 20260509083946 | 54 | 260 | 0.0 | 0.0 | 0.00 | 0.00 | 0.00 | 92 | |
| 20260509083542 | 55 | 260 | 0.0 | 0.0 | 0.00 | 0.00 | 0.00 | 93 | |
| 20260509083340 | 55 | 260 | 0.0 | 0.0 | 0.00 | 0.00 | 0.00 | 93 | |
| 20260509082935 | 55 | 260 | 0.0 | 0.0 | 0.00 | 0.00 | 0.00 | 92 | |
| 20260509082734 | 55 | 260 | 0.0 | 0.0 | 0.00 | 0.00 | 0.00 | 93 | |
| 20260509082532 | 55 | 260 | 0.0 | 0.0 | 0.00 | 0.00 | 0.00 | 93 | |
| 20260509082331 | 55 | 260 | 0.0 | 0.0 | 0.00 | 0.00 | 0.00 | 93 | |
| 20260509082129 | 55 | 260 | 0.0 | 0.0 | 0.00 | 0.00 | 0.00 | 93 | |
| 20260509081926 | 55 | 260 | 0.0 | 0.0 | 0.00 | 0.00 | 0.00 | 93 | |
| 20260509081523 | 55 | 260 | 0.0 | 0.0 | 0.00 | 0.00 | 0.00 | 92 | |
| 20260509081321 | 55 | 260 | 0.0 | 0.0 | 0.00 | 0.00 | 0.00 | 92 | |
| 20260509080915 | 55 | 260 | 0.0 | 0.0 | 0.00 | 0.00 | 0.00 | 92 | |
| 20260509080715 | 55 | 260 | 0.0 | 0.0 | 0.00 | 0.00 | 0.00 | 92 | |
| 20260509080513 | 55 | 260 | 0.0 | 0.0 | 0.00 | 0.00 | 0.00 | 92 | |
| 20260509080311 | 55 | 260 | 0.0 | 0.0 | 0.00 | 0.00 | 0.00 | 92 | |
| 20260509075908 | 55 | 260 | 0.0 | 0.0 | 0.00 | 0.00 | 0.00 | 92 | |
| 20260509075706 | 56 | 260 | 0.0 | 0.0 | 0.00 | 0.00 | 0.00 | 92 | |
| 20260509075504 | 56 | 260 | 0.0 | 0.0 | 0.00 | 0.00 | 0.00 | 92 | |
| 20260509075305 | 56 | 260 | 0.0 | 0.0 | 0.00 | 0.00 | 0.00 | 92 | |
| 20260509075101 | 56 | 260 | 0.0 | 0.0 | 0.00 | 0.00 | 0.00 | 92 | |
| 20260509074656 | 56 | 260 | 0.0 | 0.0 | 0.00 | 0.00 | 0.00 | 91 | |
| 20260509074454 | 56 | 260 | 0.0 | 0.0 | 0.00 | 0.00 | 0.00 | 91 | |
| 20260509074252 | 56 | 260 | 0.0 | 0.0 | 0.00 | 0.00 | 0.00 | 91 | |
| 20260509074051 | 56 | 260 | 0.0 | 0.0 | 0.00 | 0.00 | 0.00 | 91 | |
| 20260509073849 | 56 | 260 | 0.0 | 0.0 | 0.00 | 0.00 | 0.00 | 91 | |
| 20260509073241 | 56 | 260 | 0.0 | 0.0 | 0.00 | 0.00 | 0.00 | 91 | |
| 20260509073041 | 56 | 260 | 0.0 | 0.0 | 0.00 | 0.00 | 0.00 | 91 | |
| 20260509072839 | 56 | 260 | 0.0 | 0.0 | 0.00 | 0.00 | 0.00 | 91 | |
| 20260509072637 | 56 | 260 | 0.0 | 0.0 | 0.00 | 0.00 | 0.00 | 91 | |
| 20260509072435 | 56 | 260 | 0.0 | 0.0 | 0.00 | 0.00 | 0.00 | 91 | |
| 20260509071830 | 56 | 260 | 0.0 | 0.0 | 0.00 | 0.00 | 0.00 | 90 | |
| 20260509071628 | 56 | 260 | 0.0 | 0.0 | 0.00 | 0.00 | 0.00 | 90 | |
| 20260509071426 | 56 | 260 | 0.0 | 0.0 | 0.00 | 0.00 | 0.00 | 90 | |
| 20260509071223 | 56 | 260 | 0.0 | 0.0 | 0.00 | 0.00 | 0.00 | 90 | |
| 20260509071022 | 57 | 260 | 0.0 | 0.0 | 0.00 | 0.00 | 0.00 | 90 | |
| 20260509070820 | 56 | 260 | 0.0 | 0.0 | 0.00 | 0.00 | 0.00 | 90 | |
| 20260509070416 | 57 | 260 | 0.0 | 0.0 | 0.00 | 0.00 | 0.00 | 90 | |
| 20260509070012 | 57 | 260 | 0.0 | 0.0 | 0.00 | 0.00 | 0.00 | 90 | |
| 20260509065405 | 57 | 260 | 0.0 | 0.0 | 0.00 | 0.00 | 0.00 | 90 | |
| 20260509065205 | 57 | 260 | 0.0 | 0.0 | 0.00 | 0.00 | 0.00 | 90 | |
| 20260509065003 | 57 | 260 | 0.0 | 0.0 | 0.00 | 0.00 | 0.00 | 90 | |
| 20260509064800 | 57 | 260 | 0.0 | 0.0 | 0.00 | 0.00 | 0.00 | 90 | |
| 20260509064357 | 57 | 260 | 0.0 | 0.0 | 0.00 | 0.00 | 0.00 | 90 | |
| 20260509064155 | 57 | 260 | 0.0 | 0.0 | 0.00 | 0.00 | 0.00 | 90 | |
| 20260509063953 | 57 | 260 | 0.0 | 0.0 | 0.00 | 0.00 | 0.00 | 89 | |
| 20260509063751 | 57 | 260 | 0.0 | 0.0 | 0.00 | 0.00 | 0.00 | 89 | |
| 20260509063549 | 57 | 260 | 0.0 | 0.0 | 0.00 | 0.00 | 0.00 | 89 | |
| 20260509063348 | 57 | 260 | 0.0 | 0.0 | 0.00 | 0.00 | 0.00 | 89 | |
| 20260509063144 | 57 | 260 | 0.0 | 0.0 | 0.00 | 0.00 | 0.00 | 89 | |
| 20260509062944 | 58 | 260 | 0.0 | 0.0 | 0.00 | 0.00 | 0.00 | 89 | |
| 20260509062740 | 58 | 260 | 0.0 | 0.0 | 0.00 | 0.00 | 0.00 | 89 | |
| 20260509062540 | 58 | 260 | 0.0 | 0.0 | 0.00 | 0.00 | 0.00 | 89 | |
| 20260509062338 | 58 | 260 | 0.0 | 0.0 | 0.00 | 0.00 | 0.00 | 89 | |
| 20260509062136 | 58 | 260 | 0.0 | 2.6 | 0.00 | 0.00 | 0.00 | 89 | |
| 20260509061732 | 58 | 295 | 0.9 | 2.6 | 0.00 | 0.00 | 0.00 | 89 | |
| 20260509061531 | 58 | 298 | 0.9 | 2.6 | 0.00 | 0.00 | 0.00 | 89 | |
| 20260509061127 | 58 | 296 | 1.7 | 2.6 | 0.00 | 0.00 | 0.00 | 89 | |
| 20260509060723 | 58 | 300 | 0.9 | 2.6 | 0.00 | 0.00 | 0.00 | 89 | |
| 20260509060519 | 58 | 305 | 2.6 | 2.6 | 0.00 | 0.00 | 0.00 | 89 | |
| 20260509060319 | 58 | 306 | 1.7 | 0.0 | 0.00 | 0.00 | 0.00 | 89 | |
| 20260509060117 | 58 | 298 | 1.7 | 0.0 | 0.00 | 0.00 | 0.00 | 88 | |
| 20260509055713 | 58 | 268 | 0.0 | 0.0 | 0.00 | 0.00 | 0.00 | 89 | |
| 20260509055309 | 58 | 268 | 0.0 | 0.0 | 0.00 | 0.00 | 0.00 | 88 | |
| 20260509055108 | 58 | 268 | 0.0 | 0.0 | 0.00 | 0.00 | 0.00 | 88 | |
| 20260509054502 | 58 | 268 | 0.0 | 0.0 | 0.00 | 0.00 | 0.00 | 88 | |
| 20260509054300 | 58 | 268 | 0.0 | 0.0 | 0.00 | 0.00 | 0.00 | 88 | |
| 20260509054058 | 58 | 268 | 0.0 | 0.0 | 0.00 | 0.00 | 0.00 | 88 | |
| 20260509053856 | 58 | 268 | 0.0 | 0.0 | 0.00 | 0.00 | 0.00 | 88 | |
| 20260509053654 | 58 | 268 | 0.0 | 0.0 | 0.00 | 0.00 | 0.00 | 88 | |
| 20260509053452 | 58 | 268 | 0.0 | 0.0 | 0.00 | 0.00 | 0.00 | 88 | |
| 20260509053251 | 58 | 268 | 0.0 | 0.0 | 0.00 | 0.00 | 0.00 | 88 | |
| 20260509053048 | 58 | 268 | 0.0 | 0.0 | 0.00 | 0.00 | 0.00 | 87 | |
| 20260509052846 | 58 | 268 | 0.0 | 0.0 | 0.00 | 0.00 | 0.00 | 87 | |
| 20260509052443 | 59 | 268 | 0.0 | 0.0 | 0.00 | 0.00 | 0.00 | 87 | |
| 20260509051837 | 59 | 268 | 0.0 | 0.0 | 0.00 | 0.00 | 0.00 | 86 | |
| 20260509051231 | 59 | 268 | 0.0 | 0.0 | 0.00 | 0.00 | 0.00 | 86 | |
| 20260509051029 | 59 | 268 | 0.0 | 0.0 | 0.00 | 0.00 | 0.00 | 86 | |
| 20260509050828 | 59 | 268 | 0.0 | 0.0 | 0.00 | 0.00 | 0.00 | 86 | |
| 20260509050624 | 59 | 268 | 0.0 | 0.0 | 0.00 | 0.00 | 0.00 | 86 | |
| 20260509050424 | 59 | 268 | 0.0 | 0.0 | 0.00 | 0.00 | 0.00 | 85 | |
| 20260509050222 | 59 | 268 | 0.0 | 0.0 | 0.00 | 0.00 | 0.00 | 85 | |
| 20260509050020 | 59 | 268 | 0.0 | 0.0 | 0.00 | 0.00 | 0.00 | 85 | |
| 20260509045818 | 59 | 268 | 0.0 | 0.0 | 0.00 | 0.00 | 0.00 | 86 | |
| 20260509045616 | 59 | 268 | 0.0 | 0.0 | 0.00 | 0.00 | 0.00 | 86 | |
| 20260509045414 | 60 | 268 | 0.0 | 0.0 | 0.00 | 0.00 | 0.00 | 86 | |
| 20260509045011 | 60 | 268 | 0.0 | 0.0 | 0.00 | 0.00 | 0.00 | 86 | |
| 20260509044809 | 60 | 268 | 0.0 | 0.0 | 0.00 | 0.00 | 0.00 | 86 | |
| 20260509044405 | 60 | 268 | 0.0 | 0.0 | 0.00 | 0.00 | 0.00 | 86 | |
| 20260509044203 | 60 | 268 | 0.0 | 0.0 | 0.00 | 0.00 | 0.00 | 85 | |
| 20260509044001 | 60 | 268 | 0.0 | 0.0 | 0.00 | 0.00 | 0.00 | 85 | |
| 20260509043759 | 60 | 268 | 0.0 | 0.0 | 0.00 | 0.00 | 0.00 | 85 | |
| 20260509043557 | 60 | 268 | 0.0 | 0.0 | 0.00 | 0.00 | 0.00 | 85 | |
| 20260509043355 | 60 | 268 | 0.0 | 0.0 | 0.00 | 0.00 | 0.00 | 85 | |
| 20260509043153 | 60 | 268 | 0.0 | 0.0 | 0.00 | 0.00 | 0.00 | 85 | |
| 20260509042951 | 60 | 268 | 0.0 | 0.0 | 0.00 | 0.00 | 0.00 | 85 | |
| 20260509042751 | 60 | 268 | 0.0 | 0.0 | 0.00 | 0.00 | 0.00 | 85 | |
| 20260509042546 | 60 | 268 | 0.0 | 0.0 | 0.00 | 0.00 | 0.00 | 84 | |
| 20260509042144 | 60 | 268 | 0.0 | 0.0 | 0.00 | 0.00 | 0.00 | 84 | |
| 20260509041740 | 60 | 268 | 0.0 | 0.0 | 0.00 | 0.00 | 0.00 | 84 | |
| 20260509041538 | 60 | 268 | 0.0 | 0.0 | 0.00 | 0.00 | 0.00 | 84 | |
| 20260509041336 | 60 | 268 | 0.0 | 0.0 | 0.00 | 0.00 | 0.00 | 84 | |
| 20260509041134 | 60 | 268 | 0.0 | 0.0 | 0.00 | 0.00 | 0.00 | 83 | |
| 20260509040931 | 61 | 268 | 0.0 | 0.0 | 0.00 | 0.00 | 0.00 | 83 | |
| 20260509040731 | 61 | 268 | 0.0 | 0.0 | 0.00 | 0.00 | 0.00 | 83 | |
| 20260509040529 | 61 | 268 | 0.0 | 0.0 | 0.00 | 0.00 | 0.00 | 83 | |
| 20260509040327 | 61 | 268 | 0.0 | 0.0 | 0.00 | 0.00 | 0.00 | 83 | |
| 20260509040123 | 61 | 268 | 0.0 | 0.0 | 0.00 | 0.00 | 0.00 | 83 | |
| 20260509035923 | 61 | 268 | 0.0 | 0.0 | 0.00 | 0.00 | 0.00 | 83 | |
| 20260509035720 | 61 | 268 | 0.0 | 0.0 | 0.00 | 0.00 | 0.00 | 83 | |
| 20260509035519 | 61 | 268 | 0.0 | 0.0 | 0.00 | 0.00 | 0.00 | 84 | |
| 20260509035317 | 61 | 268 | 0.0 | 0.0 | 0.00 | 0.00 | 0.00 | 83 | |
| 20260509035115 | 61 | 268 | 0.0 | 0.0 | 0.00 | 0.00 | 0.00 | 83 | |
| 20260509034711 | 61 | 268 | 0.0 | 2.6 | 0.00 | 0.00 | 0.00 | 83 | |
| 20260509034509 | 61 | 268 | 0.0 | 2.6 | 0.00 | 0.00 | 0.00 | 84 | |
| 20260509034106 | 61 | 275 | 0.9 | 2.6 | 0.00 | 0.00 | 0.00 | 83 | |
| 20260509033903 | 61 | 295 | 2.6 | 2.6 | 0.00 | 0.00 | 0.00 | 83 | |
| 20260509033257 | 61 | 257 | 0.0 | 0.9 | 0.00 | 0.00 | 0.00 | 83 | |
| 20260509033056 | 61 | 257 | 0.0 | 0.9 | 0.00 | 0.00 | 0.00 | 83 | |
| 20260509032853 | 61 | 257 | 0.0 | 0.9 | 0.00 | 0.00 | 0.00 | 83 | |
| 20260509032250 | 61 | 272 | 0.9 | 4.3 | 0.00 | 0.00 | 0.00 | 83 | |
| 20260509032046 | 62 | 274 | 1.7 | 4.3 | 0.00 | 0.00 | 0.00 | 83 | |
| 20260509031844 | 62 | 277 | 1.7 | 4.3 | 0.00 | 0.00 | 0.00 | 83 | |
| 20260509031440 | 62 | 293 | 2.6 | 4.3 | 0.00 | 0.00 | 0.00 | 82 | |
| 20260509030835 | 62 | 296 | 1.7 | 4.3 | 0.00 | 0.00 | 0.00 | 82 | |
| 20260509030633 | 62 | 282 | 1.7 | 5.2 | 0.00 | 0.00 | 0.00 | 82 | |
| 20260509030229 | 62 | 286 | 2.6 | 5.2 | 0.00 | 0.00 | 0.00 | 82 | |
| 20260509030027 | 62 | 279 | 3.5 | 5.2 | 0.00 | 0.00 | 0.00 | 81 | |
| 20260509025826 | 62 | 284 | 3.5 | 5.2 | 0.00 | 0.00 | 0.00 | 81 | |
| 20260509025624 | 62 | 298 | 3.5 | 4.3 | 0.00 | 0.00 | 0.00 | 81 | |
| 20260509025422 | 62 | 281 | 4.3 | 4.3 | 0.00 | 0.00 | 0.00 | 81 | |
| 20260509025220 | 63 | 288 | 2.6 | 5.2 | 0.00 | 0.00 | 0.00 | 80 | |
| 20260509025018 | 63 | 288 | 2.6 | 5.2 | 0.00 | 0.00 | 0.00 | 80 | |
| 20260509024614 | 63 | 295 | 2.6 | 4.3 | 0.00 | 0.00 | 0.00 | 80 | |
| 20260509024211 | 63 | 288 | 3.5 | 4.3 | 0.00 | 0.00 | 0.00 | 79 | |
| 20260509024009 | 63 | 298 | 2.6 | 4.3 | 0.00 | 0.00 | 0.00 | 79 | |
| 20260509023806 | 63 | 286 | 2.6 | 4.3 | 0.00 | 0.00 | 0.00 | 79 | |
| 20260509023604 | 64 | 296 | 2.6 | 4.3 | 0.00 | 0.00 | 0.00 | 79 | |
| 20260509023402 | 63 | 286 | 0.9 | 4.3 | 0.00 | 0.00 | 0.00 | 78 | |
| 20260509023006 | 63 | 300 | 2.6 | 5.2 | 0.00 | 0.00 | 0.00 | 78 | |
| 20260509022757 | 64 | 281 | 3.5 | 5.2 | 0.00 | 0.00 | 0.00 | 78 | |
| 20260509021747 | 64 | 289 | 3.5 | 5.2 | 0.00 | 0.00 | 0.00 | 77 | |
| 20260509021141 | 64 | 288 | 4.3 | 6.1 | 0.00 | 0.00 | 0.00 | 77 | |
| 20260509020940 | 64 | 268 | 5.2 | 6.1 | 0.00 | 0.00 | 0.00 | 77 | |
| 20260509020738 | 64 | 274 | 3.5 | 6.1 | 0.00 | 0.00 | 0.00 | 77 | |
| 20260509020536 | 64 | 267 | 5.2 | 6.1 | 0.00 | 0.00 | 0.00 | 76 | |
| 20260509020334 | 64 | 293 | 2.6 | 6.1 | 0.00 | 0.00 | 0.00 | 76 | |
| 20260509020132 | 65 | 282 | 4.3 | 7.8 | 0.00 | 0.00 | 0.00 | 76 | |
| 20260509015728 | 65 | 291 | 5.2 | 7.0 | 0.00 | 0.00 | 0.00 | 75 | |
| 20260509015325 | 65 | 277 | 2.6 | 7.0 | 0.00 | 0.00 | 0.00 | 75 | |
| 20260509015123 | 65 | 274 | 4.3 | 8.7 | 0.00 | 0.00 | 0.00 | 75 | |
| 20260509014921 | 65 | 260 | 6.1 | 8.7 | 0.00 | 0.00 | 0.00 | 74 | |
| 20260509014719 | 65 | 275 | 4.3 | 7.8 | 0.00 | 0.00 | 0.00 | 75 | |
| 20260509014517 | 65 | 284 | 4.3 | 7.8 | 0.00 | 0.00 | 0.00 | 75 | |
| 20260509014315 | 65 | 260 | 5.2 | 7.8 | 0.00 | 0.00 | 0.00 | 75 | |
| 20260509014113 | 65 | 264 | 6.1 | 7.8 | 0.00 | 0.00 | 0.00 | 74 | |
| 20260509013912 | 65 | 262 | 5.2 | 7.8 | 0.00 | 0.00 | 0.00 | 74 | |
| 20260509013709 | 65 | 270 | 6.1 | 8.7 | 0.00 | 0.00 | 0.00 | 74 | |
| 20260509013508 | 66 | 292 | 5.2 | 8.7 | 0.00 | 0.00 | 0.00 | 74 | |
| 20260509013306 | 66 | 271 | 6.1 | 8.7 | 0.00 | 0.00 | 0.00 | 74 | |
| 20260509013104 | 65 | 293 | 6.1 | 8.7 | 0.00 | 0.00 | 0.00 | 73 | |
| 20260509012903 | 66 | 267 | 7.0 | 8.7 | 0.00 | 0.00 | 0.00 | 73 | |
| 20260509012700 | 66 | 264 | 7.8 | 9.6 | 0.00 | 0.00 | 0.00 | 72 | |
| 20260509012458 | 67 | 262 | 4.3 | 9.6 | 0.00 | 0.00 | 0.00 | 72 | |
| 20260509012256 | 66 | 272 | 5.2 | 9.6 | 0.00 | 0.00 | 0.00 | 72 | |
| 20260509011853 | 67 | 267 | 5.2 | 9.6 | 0.00 | 0.00 | 0.00 | 71 | |
| 20260509011651 | 67 | 253 | 5.2 | 8.7 | 0.00 | 0.00 | 0.00 | 71 | |
| 20260509011448 | 67 | 272 | 6.1 | 8.7 | 0.00 | 0.00 | 0.00 | 71 | |
| 20260509011045 | 66 | 267 | 8.7 | 10.4 | 0.00 | 0.00 | 0.00 | 72 | |
| 20260509010843 | 67 | 271 | 5.2 | 10.4 | 0.00 | 0.00 | 0.00 | 72 | |
| 20260509010439 | 67 | 271 | 7.8 | 11.3 | 0.00 | 0.00 | 0.00 | 71 | |
| 20260509005834 | 67 | 262 | 7.8 | 12.2 | 0.00 | 0.00 | 0.00 | 70 | |
| 20260509005430 | 68 | 279 | 5.2 | 10.4 | 0.00 | 0.00 | 0.00 | 69 | |
| 20260509004420 | 69 | 264 | 4.3 | 11.3 | 0.00 | 0.00 | 0.00 | 68 | |
| 20260509004017 | 68 | 261 | 8.7 | 13.9 | 0.00 | 0.00 | 0.00 | 68 | |
| 20260509003612 | 69 | 254 | 7.0 | 12.2 | 0.00 | 0.00 | 0.00 | 67 | |
| 20260509003208 | 69 | 278 | 6.1 | 11.3 | 0.00 | 0.00 | 0.00 | 67 | |
| 20260509003007 | 69 | 255 | 6.1 | 11.3 | 0.00 | 0.00 | 0.00 | 66 | |
| 20260509002805 | 69 | 268 | 7.0 | 11.3 | 0.00 | 0.00 | 0.00 | 67 | |
| 20260509002603 | 69 | 262 | 5.2 | 11.3 | 0.00 | 0.00 | 0.00 | 67 | |
| 20260509002401 | 69 | 264 | 8.7 | 11.3 | 0.00 | 0.00 | 0.00 | 67 | |
| 20260509002158 | 69 | 278 | 10.4 | 10.4 | 0.00 | 0.00 | 0.00 | 66 | |
| 20260509001957 | 69 | 291 | 7.0 | 10.4 | 0.00 | 0.00 | 0.00 | 67 | |
| 20260509001755 | 69 | 261 | 7.8 | 9.6 | 0.00 | 0.00 | 0.00 | 66 | |
| 20260509001351 | 70 | 291 | 5.2 | 9.6 | 0.00 | 0.00 | 0.00 | 65 | |
| 20260509000947 | 71 | 278 | 7.0 | 10.4 | 0.00 | 0.00 | 0.00 | 64 | |
| 20260509000745 | 70 | 262 | 7.0 | 9.6 | 0.00 | 0.00 | 0.00 | 63 | |
| 20260509000341 | 71 | 284 | 6.1 | 9.6 | 0.00 | 0.00 | 0.00 | 63 | |
| 20260508235736 | 71 | 254 | 8.7 | 9.6 | 0.00 | 0.00 | 0.00 | 63 | |
| 20260508235533 | 71 | 272 | 3.5 | 9.6 | 0.00 | 0.00 | 0.00 | 64 | |
| 20260508235332 | 70 | 258 | 4.3 | 9.6 | 0.00 | 0.00 | 0.00 | 62 | |
| 20260508234928 | 71 | 323 | 3.5 | 11.3 | 0.00 | 0.00 | 0.00 | 63 | |
| 20260508234725 | 71 | 251 | 2.6 | 9.6 | 0.00 | 0.00 | 0.00 | 63 | |
| 20260508234524 | 71 | 281 | 7.8 | 9.6 | 0.00 | 0.00 | 0.00 | 62 | |
| 20260508234321 | 72 | 268 | 7.0 | 9.6 | 0.00 | 0.00 | 0.00 | 62 | |
| 20260508234120 | 72 | 279 | 7.8 | 10.4 | 0.00 | 0.00 | 0.00 | 63 | |
| 20260508233312 | 72 | 265 | 9.6 | 8.7 | 0.00 | 0.00 | 0.00 | 61 | |
| 20260508233110 | 72 | 267 | 6.1 | 8.7 | 0.00 | 0.00 | 0.00 | 62 | |
| 20260508232908 | 72 | 241 | 4.3 | 8.7 | 0.00 | 0.00 | 0.00 | 62 | |
| 20260508232706 | 72 | 255 | 7.8 | 9.6 | 0.00 | 0.00 | 0.00 | 61 | |
| 20260508232504 | 72 | 253 | 4.3 | 9.6 | 0.00 | 0.00 | 0.00 | 62 | |
| 20260508232306 | 71 | 257 | 7.0 | 13.0 | 0.00 | 0.00 | 0.00 | 63 | |
| 20260508232100 | 71 | 279 | 8.7 | 13.0 | 0.00 | 0.00 | 0.00 | 63 | |
| 20260508231858 | 71 | 270 | 7.8 | 13.0 | 0.00 | 0.00 | 0.00 | 63 | |
| 20260508231657 | 71 | 279 | 7.0 | 12.2 | 0.00 | 0.00 | 0.00 | 63 | |
| 20260508231455 | 70 | 262 | 7.8 | 12.2 | 0.00 | 0.00 | 0.00 | 63 | |
| 20260508231252 | 71 | 268 | 7.8 | 12.2 | 0.00 | 0.00 | 0.00 | 63 | |
| 20260508230849 | 71 | 296 | 5.2 | 12.2 | 0.00 | 0.00 | 0.00 | 62 | |
| 20260508230444 | 72 | 272 | 9.6 | 9.6 | 0.00 | 0.00 | 0.00 | 60 | |
| 20260508230242 | 73 | 279 | 3.5 | 10.4 | 0.00 | 0.00 | 0.00 | 61 | |
| 20260508230040 | 72 | 284 | 6.1 | 10.4 | 0.00 | 0.00 | 0.00 | 60 | |
| 20260508225435 | 73 | 239 | 7.8 | 9.6 | 0.00 | 0.00 | 0.00 | 61 | |
| 20260508225233 | 73 | 262 | 7.0 | 9.6 | 0.00 | 0.00 | 0.00 | 60 | |
| 20260508224828 | 73 | 264 | 8.7 | 9.6 | 0.00 | 0.00 | 0.00 | 61 | |
| 20260508224627 | 72 | 241 | 6.1 | 11.3 | 0.00 | 0.00 | 0.00 | 61 | |
| 20260508224021 | 71 | 272 | 7.8 | 13.0 | 0.00 | 0.00 | 0.00 | 61 | |
| 20260508223819 | 72 | 264 | 7.0 | 8.7 | 0.00 | 0.00 | 0.00 | 61 | |
| 20260508223616 | 73 | 255 | 8.7 | 8.7 | 0.00 | 0.00 | 0.00 | 60 | |
| 20260508223414 | 73 | 271 | 7.0 | 8.7 | 0.00 | 0.00 | 0.00 | 59 | |
| 20260508222203 | 72 | 260 | 8.7 | 10.4 | 0.00 | 0.00 | 0.00 | 60 | |
| 20260508221355 | 74 | 264 | 5.2 | 10.4 | 0.00 | 0.00 | 0.00 | 59 | |
| 20260508220952 | 73 | 182 | 3.5 | 9.6 | 0.00 | 0.00 | 0.00 | 59 | |
| 20260508220547 | 73 | 264 | 1.7 | 11.3 | 0.00 | 0.00 | 0.00 | 62 | |
| 20260508220345 | 72 | 247 | 2.6 | 11.3 | 0.00 | 0.00 | 0.00 | 61 | |
| 20260508220144 | 72 | 261 | 7.8 | 10.4 | 0.00 | 0.00 | 0.00 | 61 | |
| 20260508215941 | 73 | 255 | 5.2 | 10.4 | 0.00 | 0.00 | 0.00 | 60 | |
| 20260508215740 | 72 | 250 | 4.3 | 12.2 | 0.00 | 0.00 | 0.00 | 61 | |
| 20260508215538 | 72 | 247 | 3.5 | 12.2 | 0.00 | 0.00 | 0.00 | 62 | |
| 20260508215335 | 72 | 268 | 9.6 | 12.2 | 0.00 | 0.00 | 0.00 | 62 | |
| 20260508214931 | 73 | 260 | 8.7 | 13.9 | 0.00 | 0.00 | 0.00 | 61 | |
| 20260508214730 | 72 | 267 | 10.4 | 9.6 | 0.00 | 0.00 | 0.00 | 60 | |
| 20260508214528 | 73 | 257 | 4.3 | 9.6 | 0.00 | 0.00 | 0.00 | 59 | |
| 20260508214326 | 73 | 279 | 3.5 | 9.6 | 0.00 | 0.00 | 0.00 | 60 | |
| 20260508213922 | 72 | 282 | 7.8 | 10.4 | 0.00 | 0.00 | 0.00 | 61 | |
| 20260508213720 | 72 | 272 | 3.5 | 12.2 | 0.00 | 0.00 | 0.00 | 62 | |
| 20260508213518 | 72 | 264 | 9.6 | 12.2 | 0.00 | 0.00 | 0.00 | 61 | |
| 20260508213318 | 72 | 272 | 3.5 | 9.6 | 0.00 | 0.00 | 0.00 | 61 | |
| 20260508213114 | 73 | 274 | 1.7 | 9.6 | 0.00 | 0.00 | 0.00 | 61 | |
| 20260508212912 | 72 | 270 | 7.0 | 9.6 | 0.00 | 0.00 | 0.00 | 62 | |
| 20260508212710 | 72 | 270 | 7.8 | 11.3 | 0.00 | 0.00 | 0.00 | 61 | |
| 20260508212508 | 72 | 265 | 7.8 | 11.3 | 0.00 | 0.00 | 0.00 | 61 | |
| 20260508212306 | 72 | 267 | 1.7 | 11.3 | 0.00 | 0.00 | 0.00 | 62 | |
| 20260508211700 | 72 | 262 | 7.0 | 14.8 | 0.00 | 0.00 | 0.00 | 61 | |
| 20260508211256 | 72 | 265 | 6.1 | 13.0 | 0.00 | 0.00 | 0.00 | 63 | |
| 20260508211055 | 72 | 274 | 7.8 | 13.0 | 0.00 | 0.00 | 0.00 | 62 | |
| 20260508210651 | 72 | 274 | 7.0 | 13.0 | 0.00 | 0.00 | 0.00 | 62 | |
| 20260508210247 | 72 | 260 | 7.8 | 12.2 | 0.00 | 0.00 | 0.00 | 63 | |
| 20260508210045 | 72 | 271 | 7.0 | 12.2 | 0.00 | 0.00 | 0.00 | 62 | |
| 20260508205843 | 72 | 268 | 8.7 | 12.2 | 0.00 | 0.00 | 0.00 | 62 | |
| 20260508205640 | 72 | 275 | 6.1 | 11.3 | 0.00 | 0.00 | 0.00 | 61 | |
| 20260508204833 | 72 | 243 | 7.0 | 14.8 | 0.00 | 0.00 | 0.00 | 61 | |
| 20260508204631 | 72 | 253 | 7.8 | 13.0 | 0.00 | 0.00 | 0.00 | 62 | |
| 20260508204429 | 72 | 277 | 13.0 | 13.0 | 0.00 | 0.00 | 0.00 | 60 | |
| 20260508204227 | 72 | 296 | 2.6 | 12.2 | 0.00 | 0.00 | 0.00 | 61 | |
| 20260508204025 | 72 | 286 | 3.5 | 12.2 | 0.00 | 0.00 | 0.00 | 60 | |
| 20260508203823 | 72 | 275 | 7.0 | 12.2 | 0.00 | 0.00 | 0.00 | 61 | |
| 20260508203621 | 73 | 254 | 11.3 | 10.4 | 0.00 | 0.00 | 0.00 | 60 | |
| 20260508203217 | 72 | 260 | 7.0 | 10.4 | 0.00 | 0.00 | 0.00 | 59 | |
| 20260508202813 | 73 | 291 | 4.3 | 13.0 | 0.00 | 0.00 | 0.00 | 59 | |
| 20260508202611 | 72 | 358 | 2.6 | 13.0 | 0.00 | 0.00 | 0.00 | 60 | |
| 20260508202409 | 72 | 244 | 3.5 | 13.0 | 0.00 | 0.00 | 0.00 | 60 | |
| 20260508202207 | 72 | 275 | 7.8 | 11.3 | 0.00 | 0.00 | 0.00 | 62 | |
| 20260508201400 | 71 | 229 | 3.5 | 12.2 | 0.00 | 0.00 | 0.00 | 63 | |
| 20260508201157 | 71 | 275 | 7.0 | 11.3 | 0.00 | 0.00 | 0.00 | 62 | |
| 20260508200956 | 71 | 278 | 6.1 | 11.3 | 0.00 | 0.00 | 0.00 | 63 | |
| 20260508200754 | 70 | 261 | 4.3 | 12.2 | 0.00 | 0.00 | 0.00 | 63 | |
| 20260508200552 | 71 | 262 | 6.1 | 12.2 | 0.00 | 0.00 | 0.00 | 63 | |
| 20260508200350 | 70 | 257 | 3.5 | 12.2 | 0.00 | 0.00 | 0.00 | 63 | |
| 20260508200148 | 71 | 289 | 7.0 | 11.3 | 0.00 | 0.00 | 0.00 | 63 | |
| 20260508195945 | 70 | 271 | 7.8 | 11.3 | 0.00 | 0.00 | 0.00 | 62 | |
| 20260508195744 | 71 | 253 | 7.8 | 11.3 | 0.00 | 0.00 | 0.00 | 64 | |
| 20260508195341 | 71 | 277 | 7.0 | 11.3 | 0.00 | 0.00 | 0.00 | 64 | |
| 20260508195138 | 70 | 257 | 7.0 | 11.3 | 0.00 | 0.00 | 0.00 | 67 | |
| 20260508194734 | 69 | 265 | 7.8 | 11.3 | 0.00 | 0.00 | 0.00 | 65 | |
| 20260508194533 | 70 | 251 | 10.4 | 11.3 | 0.00 | 0.00 | 0.00 | 63 | |
| 20260508194331 | 69 | 289 | 5.2 | 11.3 | 0.00 | 0.00 | 0.00 | 65 | |
| 20260508194128 | 70 | 254 | 5.2 | 10.4 | 0.00 | 0.00 | 0.00 | 65 | |
| 20260508193927 | 70 | 265 | 5.2 | 10.4 | 0.00 | 0.00 | 0.00 | 64 | |
| 20260508193724 | 70 | 264 | 1.7 | 11.3 | 0.00 | 0.00 | 0.00 | 64 | |
| 20260508193522 | 70 | 270 | 4.3 | 11.3 | 0.00 | 0.00 | 0.00 | 67 | |
| 20260508193320 | 69 | 284 | 7.0 | 11.3 | 0.00 | 0.00 | 0.00 | 66 | |
| 20260508193119 | 69 | 277 | 4.3 | 9.6 | 0.00 | 0.00 | 0.00 | 68 | |
| 20260508192916 | 69 | 271 | 7.8 | 9.6 | 0.00 | 0.00 | 0.00 | 66 | |
| 20260508192714 | 69 | 270 | 7.0 | 8.7 | 0.00 | 0.00 | 0.00 | 65 |